ALESUND/VIGRA current weather conditions

sailwx.info

Wind from 250 at 15 knots

Air temperature 8.0° C
Visibility: greater than 5.4 NM
Dewpoint 7.0° C

Last reported at 2017-Mar-26 00:20 UTC.
Time now 2017-Mar-26 01:39 UTC

Location: N 62°34' E 006°07'.
View on Google Maps.

See reports from other nearby stations

  
Tides and Currents Weather Stations Pressure Air Temp Water Temp Dewpoint Dewpoint Depression Visibility Wind Speed Wind Dir Waves Ship Positions
date/time (UTC)wind fromknots sea level pressurealtimeterstation pressurevisibilityair tempwater tempwave heightnotes
2017-Mar-26 00:20 250 15 5.4 8.0
2017-Mar-25 23:50 240 15 5.4 8.0
2017-Mar-25 23:20 240 21 5.4 9.0
2017-Mar-25 22:50 240 19 5.4 8.0
2017-Mar-25 22:20 230 17 5.4 9.0
2017-Mar-25 21:50 240 19 5.4 9.0
2017-Mar-25 21:20 240 15 5.4 9.0
2017-Mar-25 20:50 220 11 5.4 9.0
2017-Mar-25 20:20 230 17 5.4 8.0
2017-Mar-25 19:50 220 14 5.4 8.0
2017-Mar-25 19:20 220 14 5.4 8.0
2017-Mar-25 18:50 230 17 5.4 8.0
2017-Mar-25 18:20 240 14 5.4 8.0 Light drizzle.
2017-Mar-25 17:50 210 12 5.4 8.0 Light drizzle.
2017-Mar-25 17:20 230 14 5.4 8.0 Light drizzle.
2017-Mar-25 16:50 230 15 5.4 8.0 Light drizzle.
2017-Mar-25 16:20 220 13 5.4 9.0
2017-Mar-25 15:50 210 13 5.4 9.0
2017-Mar-25 15:20 220 14 5.4 9.0 Light rain.
2017-Mar-25 14:50 220 15 5.4 8.0
2017-Mar-25 14:20 220 18 4.3 8.0
2017-Mar-25 13:50 230 17 3.8 8.0 Light drizzle.
2017-Mar-25 13:20 230 17 4.9 7.0 Light drizzle.
2017-Mar-25 12:50 230 15 4.9 8.0 Light rain.
2017-Mar-25 11:50 220 17 5.4 8.0
2017-Mar-25 10:50 220 18 4.3 8.0 Light drizzle.
2017-Mar-25 10:20 220 17 5.4 9.0
2017-Mar-25 09:50 210 14 5.4 8.0
2017-Mar-25 09:20 200 12 5.4 8.0
2017-Mar-25 08:50 210 14 5.4 8.0
2017-Mar-25 07:50 190 11 5.4 8.0
2017-Mar-25 06:50 200 8 5.4 7.0
2017-Mar-25 05:50 220 13 5.4 6.0
2017-Mar-25 04:50 220 14 5.4 6.0
2017-Mar-25 04:20 220 14 4.3 6.0
2017-Mar-25 03:50 220 14 4.3 6.0
2017-Mar-25 03:20 230 12 3.8 6.0
2017-Mar-25 02:50 230 13 3.8 6.0
2017-Mar-25 02:20 240 18 3.8 6.0
2017-Mar-25 01:50 240 15 4.3 6.0
2017-Mar-25 01:20 230 15 4.3 6.0
2017-Mar-25 00:50 240 13 4.9 6.0
2017-Mar-25 00:20 260 13 3.8 6.0
2017-Mar-24 23:50 270 13 4.9 5.0 Light drizzle.
2017-Mar-24 23:20 230 15 4.3 6.0
2017-Mar-24 22:50 240 14 4.9 6.0
2017-Mar-24 22:20 250 14 5.4 6.0 Light drizzle.
2017-Mar-24 21:50 250 14 5.4 5.0 Light rain showers.
2017-Mar-24 21:20 240 17 3.8 6.0 Light rain showers.
2017-Mar-24 20:50 240 17 5.4 6.0
2017-Mar-24 20:20 240 14 3.8 6.0
2017-Mar-24 19:50 260 13 5.4 5.0 Light rain showers.
2017-Mar-24 19:20 280 20 2.7 4.0 Rain showers.
2017-Mar-24 18:50 250 19 2.7 7.0 Rain showers.
2017-Mar-24 18:20 240 19 4.9 6.0 Light drizzle.
2017-Mar-24 17:50 240 19 5.4 7.0 Light rain showers.
2017-Mar-24 17:20 240 21 5.4 6.0 Light rain showers.
2017-Mar-24 16:50 240 18 5.4 6.0 Light rain showers.
2017-Mar-24 16:20 240 19 5.4 7.0 Light rain showers.
2017-Mar-24 15:50 240 20 4.9 7.0 Light drizzle.
2017-Mar-24 15:20 220 20 5.4 6.0
2017-Mar-24 14:50 220 24 5.4 6.0
2017-Mar-24 14:20 230 24 3.8 5.0 Light rain.
2017-Mar-24 13:50 210 19 5.4 6.0 Light rain.
2017-Mar-24 13:20 200 20 5.4 6.0 Light rain.
2017-Mar-24 12:50 200 18 5.4 5.0 Light rain.
2017-Mar-24 12:20 200 18 5.4 5.0 Light rain.
2017-Mar-24 11:50 200 19 gusting 29 5.4 5.0 Light rain.
2017-Mar-24 11:20 190 18 5.4 5.0 Light rain.
2017-Mar-24 10:50 200 17 gusting 27 5.4 5.0 Drizzle.
2017-Mar-24 10:20 210 25 5.4 5.0 Light drizzle.
2017-Mar-24 09:50 210 20 5.4 5.0 Light drizzle.
2017-Mar-24 09:20 210 17 gusting 27 5.4 5.0 Light drizzle.
2017-Mar-24 08:50 200 18 5.4 5.0 Light drizzle.
2017-Mar-24 08:20 210 17 gusting 27 5.4 5.0 Light drizzle.
2017-Mar-24 07:50 220 24 5.4 5.0 Light drizzle.
2017-Mar-24 07:20 220 24 5.4 5.0 Light drizzle.
2017-Mar-24 06:50 220 25 gusting 38 5.4 4.0 Light rain drizzle.
2017-Mar-24 06:20 220 24 5.4 5.0 Light rain.
2017-Mar-24 05:50 220 24 5.4 5.0 Light rain.
2017-Mar-24 05:20 230 25 5.4 5.0 Light rain.
2017-Mar-24 04:50 250 24 3.8 4.0 Drizzle rain.
2017-Mar-24 04:20 240 26 5.4 5.0 Drizzle.
2017-Mar-24 03:50 240 26 gusting 38 5.4 6.0 Light drizzle.
2017-Mar-24 03:20 220 20 gusting 29 5.4 4.0 Light rain.
2017-Mar-24 02:50 220 20 5.4 4.0 Drizzle.
2017-Mar-24 02:20 220 19 5.4 4.0 Drizzle.
2017-Mar-24 01:50 220 17 5.4 3.0 Light rain.
2017-Mar-24 01:20 190 12 5.4 3.0 Light rain.